Regional Weather Roundup
Issued by NWS Wakefield, VA

Home | Current Version | Previous Version | Graphics & Text | Print | Product List | Glossary On
Versions: 1 2 3 4 5 6 7 8 9 10 11 12 13 14 15 16 17 18 19 20 21 22 23 24 25 26 27 28 29 30 31 32 33 34 35 36 37 38 39 40 41 42 43 44 45 46 47 48 49
000
ASUS41 KAKQ 272310
RWRAKQ

REGIONAL WEATHER ROUNDUP
NATIONAL WEATHER SERVICE WAKEFIELD VA
600 PM EST FRI FEB 27 2015

Note: "fair" indicates few or no clouds below 12,000 feet with no
significant weather and/or obstructions to visibility. * = Denotes
station may not report precipitation (e.g., rain,snow,etc.),
thunder or fog.

VAZ042-051-052>054-056-280000-
NORTHERN VIRGINIA

CITY           SKY/WX    TMP DP  RH WIND       PRES   REMARKS
WASH NATIONAL  PTCLDY    32   9  38 N13       30.52R WCI  22
DULLES         PTCLDY    29   7  39 NW6       30.50R
FORT BELVOIR   CLEAR     31   8  38 NW6       30.51R
QUANTICO       CLEAR     32  11  41 NE10      30.52R WCI  24
FREDERICKSBRG* MOCLDY    33  13  44 N7        30.50R
STAFFORD*      CLEAR     30   8  40 N3        30.54R
WARRENTON      CLEAR     31  16  54 NE5       30.49R
CULPEPER*      CLEAR     30  10  43 NE3       30.49R
MANASSAS*      CLEAR     30  12  47 N8        30.50
LEESBURG*      CLEAR     30  12  47 NW7       30.50R
WINCHESTER     CLEAR     30   0  27 W12       30.49R WCI  21
FRONT ROYAL*   FAIR      30   5  34 NW7       30.46R
LURAY*         FAIR      32  12  43 N6        30.46R
$$

VAZ048-049-060>072-079>083-280000-
CENTRAL AND SOUTH CENTRAL VIRGINIA

CITY           SKY/WX    TMP DP  RH WIND       PRES   REMARKS
RICHMOND       PTCLDY    34  18  52 NE7       30.48R
CHESTERFIELD*  FAIR      36  16  44 E5        30.48R
PETERSBURG*    CLEAR     35  26  70 NE6       30.47R
HANOVER        PTCLDY    33  18  53 CALM      30.49R
TAPPAHANNOCK*  CLEAR     32  10  40 N3        30.50R
QUINTON*       FAIR      32  20  61 NE6       30.48R
CHARLOTTSVILLE CLEAR     33  14  45 E9        30.44R
GORDONSVILLE*  FAIR      30  13  48 NE10      30.46R WCI  21
ORANGE*        CLOUDY    32  14  47 CALM      30.49R
LOUISA*        CLEAR     34  16  47 NE7       30.45R
BUMPASS*       FAIR      33  15  47 NE3       30.46R
FARMVILLE*     CLEAR     41  10  27 CALM      30.43R
CREWE*         FAIR      38  11  32 W5        30.43R
FORT PICKETT*  FAIR      35  27  72 E3        30.44R
CHASE CITY*    FAIR      39  19  45 NW3       30.44R
CLARKSVILLE*   FAIR      37  18  44 N3        30.43R
SOUTH HILL*    CLEAR     38  15  39 NW3       30.50R
LAWRENCEVILLE* FAIR      37  28  68 N3        30.44R
EMPORIA*       CLEAR     34  28  80 N6        30.48R
$$

VAZ088>098-280000-
SOUTHEAST VIRGINIA

CITY           SKY/WX    TMP DP  RH WIND       PRES   REMARKS
NORFOLK        PTCLDY    31  23  72 NE13      30.48R WCI  21
VIRGINIA BEACH MOCLDY    33  22  63 N10       30.48R WCI  25
NORFOLK NAVAL  PTCLDY    33  24  69 NE15      30.50R WCI  23
WEST POINT*    CLEAR     33  18  53 NE3       30.51R
SALUDA*        FAIR      29  21  72 CALM      30.50R
NEWPORT NEWS   PTCLDY    33  24  69 NE7       30.49R
LANGLEY AFB    CLEAR     30  24  77 NE9       30.49R
FORT EUSTIS    CLEAR     32  25  76 E6        30.47R
WILLIAMSBURG*  CLEAR     34  28  80 NE3       30.50R
HR EXEC AP*    FAIR      30  23  74 NE6       30.51R
FRANKLIN*      CLEAR     33  27  78 NE9       30.48R
WAKEFIELD      CLEAR     33  26  75 CALM      30.48R
$$

VAZ020-022-025-037-045-280000-
WEST CENTRAL AND SOUTHWEST VIRGINIA

CITY           SKY/WX    TMP DP  RH WIND       PRES   REMARKS
STAUNTON*      CLEAR     32  11  43 N6        30.43R
WAYNESBORO*    FAIR      30  13  49 N5        30.40R
HOT SPRINGS VA CLEAR     17   3  53 W9G16     30.27R
LYNCHBURG      CLEAR     33  10  38 W6        30.45R
DANVILLE       CLEAR     38  17  42 N8        30.44R
SOUTH BOSTON*  FAIR      38  15  39 N3        30.45R
MARTINSVILLE   CLEAR     37  17  44 N7        30.46R
ROANOKE        PTCLDY    30  10  43 NW13      30.47R WCI  20
BLACKSBURG     CLEAR     26   8  46 NW9       30.43R
DUBLIN*        CLEAR     28  11  50 NW8       30.43R
MARION*        PTCLDY    26  11  54 NW7       30.41R
HILLSVILLE*    CLEAR     27  14  57 NW13      30.36R WCI  16
RICHLANDS*     FAIR      22   8  55 NW6       30.40R
WISE*          PTCLDY    23   9  54 N6        30.40S
ABINGDON*      CLEAR     29  14  54 N5        30.42R
$$

MDZ021>025-VAZ099-100-280000-
SOUTHERN MARYLAND AND THE DELMARVA PENINSULA

CITY           SKY/WX    TMP DP  RH WIND       PRES   REMARKS
PATUXENT RIVER PTCLDY    29  17  61 N7        30.51R
BAY BRIDGE APT   N/A     28  16  59 N8        30.51S
LEONARDTOWN    CLEAR     30  19  64 CALM      30.52R
DOVER          CLEAR     26  13  58 NW8       30.50R
GEORGETOWN     CLEAR     32  13  45 N5        30.50R
EASTON         CLEAR     30  16  55 N6        30.54R
CAMBRIDGE      CLEAR     32  14  47 N9        30.50R
SALISBURY      CLEAR     30  17  58 N6        30.49S
OCEAN CITY     PTCLDY    26  23  88 CALM      30.50R FOG
WALLOPS ISLAND PTCLDY    27  25  92 E3        30.50R FOG
ACCOMACK*      PTCLDY    30  23  74 N3        30.49R
$$

NCZ012>017-030>032-280000-
NORTH CENTRAL AND EASTERN NORTH CAROLINA

CITY           SKY/WX    TMP DP  RH WIND       PRES   REMARKS
ROANOKE RAPIDS FAIR      41  21  45 NW6       30.44R
RALEIGH        PTCLDY    40  22  48 NE7       30.43R
ELIZABETH CITY CLEAR     33  27  78 NE18      30.46R WCI  22
AHOSKIE*       CLEAR     35  26  68 NE5       30.46R
EDENTON*       PTCLDY    38  30  71 NE7       30.44R
CURRITUCK*     PTCLDY    34  26  73 N14       30.47R WCI  25
KILL DEVIL HLS CLEAR     35  29  79 N8G18     30.44R
MANTEO         CLEAR     36  28  75 N13       30.45R
CAPE HATTERAS  MOCLDY    36  30  79 NE10G21   30.42R
TARBORO*       FAIR      44  24  46 NW6       30.44R
GOLDSBORO      CLEAR     46  31  56 N6        30.39R
WASHINGTON     CLEAR     42  29  60 CALM      30.42R
GREENVILLE     CLEAR     43  27  52 N3        30.42R
NEW BERN       PTCLDY    45  28  51 N7        30.41R
WILMINGTON     MOCLDY    45  34  65 E3        30.39R
$$

VAZ048-280000-
ELSEWHERE

CITY           SKY/WX    TMP DP  RH WIND       PRES   REMARKS
HARRISBURG PA  PTCLDY    25   6  44 N9        30.49R
BALTIMORE      PTCLDY    27   7  42 NW6       30.50R
ANNAPOLIS      CLEAR     29  10  45 NW7       30.51R
ANDREWS AFB    CLEAR     28   8  43 NW8       30.50R
PHILADELPHIA   CLEAR     29   5  36 W15       30.51R WCI  18
HENDERSON NC   CLEAR     38  16  40 CALM      30.43R
GREENSBORO     PTCLDY    41  20  43 CALM      30.40R
ROCKY MOUNT    CLEAR     42  25  50 N5        30.43R
$$

VAZ100-280000-
MARINE

STATION/POSITION TIME  TEMP    WIND        PRES    WAVE   SWELL
                       AIR SEA DIR/SP/G            HT/PER HT/PER
                 (UTC) (F)     (DEG/KT/KT) (MB)    (FT/S) (FT/S)
BRANDYWINE LGT   2300   28 29  350/ 13/ 16 1032.6S
CAPE MAY NJ      2300   28 33  330/  6/ 11 1032.2S
LEWES DE         2300   28 30  360/  7/  8 1032.7R
15NM E FENWICK I 2300   29 36              1032.0R   5/10
OCEAN-CITY-INLET 2300   29 32   30/  4/  6 1032.1S
WACHAPREAGUE VA  2300   29 33  360/  5/  6 1032.3R
THOMAS POINT MD  2300   30 32  350/ 11/ 12 1034.3R
COVE POINT MD    2300   28      40/  9/ 10 1032.6R
SOLOMONS ISLAND  2300      33                N/A
BISHOPS HEAD MD  2300   30 32  360/  5/  9 1032.1R
CAMBRIDGE MD     2300   27 32   10/  9/ 10 1032.5R
LEWISETTA VA     2300   30 32              1032.7R
RAPPAHANNOCK LGT 2300           10/ 12/ 13   N/A
STINGRAY PT      2300   30      40/ 12/ 14   N/A
YORK RVR RNG VA  2300   31      30/ 13/ 15 1031.6R
YORKTOWN VA      2300   29 33   40/  9/ 12 1032.1R
DOMINION TERM VA 2300   32      30/  8/ 14 1032.0R
KIPTOPEKE VA     2300           40/  6/  8   N/A
CHES BAY BRIDGE  2300   31 33   10/ 15/ 18 1031.4R
CAPE HENRY VA    2300   31      10/ 13/ 15 1030.5R
CHESAPEAKE LGHT  2200   32     360/ 19/ 19 1031.9R
WILLOUBY STN VA  2300           30/ 14/ 15   N/A
S CRANEY ISL VA  2300           30/ 11/ 13 1031.9R
CAPE HENRY BUOY  2300      35                N/A     4/11   2/11
1ST LANDING BUOY 2300   32      20/ 14/ 17 1031.3S
OFFSHORE WE BUOY 2300      38                N/A     5/10   5/10
64NM E OF VA BCH 2300   40 61   10/ 16/ 19 1030.3R   6/11   5/11
DUCK PIER NC     2300   35 35   10/ 13/ 18 1030.1R
44100 DUCK FRF   2200      36                N/A     6/10   2/11
44056 DUCK FRF   2300      35                N/A     5/11   2/11
OREGON INLET NC  2300   36 38   20/ 12/ 16 1030.2R
HATTERAS NC      2300   38 41   30/ 13/ 18 1029.9R
CAPE LOOKOUT NC  2300   44      40/ 13/ 17 1029.3R
$$


USA.gov is the U.S. government's official web portal to all federal, state and local government web resources and services.